• In Switzerland
  • List of Countries
  • For 7 days
  • Water Temperature
  • Satellite Maps
  • Weather Map
  • Weather Widgets
  • user-avatar
    Login

    Hourly Weather Krasnodvorsk

    Today, 18 July, Wednesday

    Time Temperature Precipitation Wind Pressure Humidity
    00:00 +23°C° 0 mm 5 mps 751 mmHg 71%
    01:00 +22°C° 0 mm 5 mps 751 mmHg 73%
    02:00 +22°C° 0 mm 5 mps 751 mmHg 75%
    03:00 +22°C° 0 mm 4 mps 751 mmHg 78%
    04:00 +22°C° 0 mm 4 mps 751 mmHg 79%
    05:00 +22°C° 0 mm 5 mps 751 mmHg 79%
    06:00 +22°C° 0 mm 5 mps 751 mmHg 79%
    07:00 +23°C° 0 mm 6 mps 751 mmHg 71%
    08:00 +26°C° 0 mm 6 mps 751 mmHg 63%
    09:00 +28°C° 0 mm 7 mps 751 mmHg 55%
    10:00 +29°C° 0 mm 7 mps 751 mmHg 52%
    11:00 +30°C° 0 mm 7 mps 751 mmHg 48%
    12:00 +32°C° 0 mm 7 mps 751 mmHg 45%
    13:00 +32°C° 0 mm 7 mps 751 mmHg 43%
    14:00 +32°C° 0 mm 7 mps 751 mmHg 42%
    15:00 +33°C° 0 mm 7 mps 751 mmHg 40%
    16:00 +32°C° 0 mm 7 mps 751 mmHg 42%
    17:00 +32°C° 0 mm 6 mps 751 mmHg 43%
    18:00 +30°C° 0 mm 6 mps 751 mmHg 44%
    19:00 +28°C° 0 mm 5 mps 752 mmHg 48%
    20:00 +27°C° 0 mm 3 mps 752 mmHg 53%
    21:00 +25°C° 0 mm 2 mps 752 mmHg 57%
    22:00 +25°C° 0 mm 2 mps 752 mmHg 58%
    23:00 +24°C° 0 mm 2 mps 752 mmHg 59%

    Tomorrow, 19 July, Thursday

    Time Temperature Precipitation Wind Pressure Humidity
    00:00 +24°C° 0 mm 1 mps 752 mmHg 60%
    01:00 +24°C° 0 mm 1 mps 752 mmHg 61%
    02:00 +23°C° 0 mm 1 mps 752 mmHg 63%
    03:00 +23°C° 0 mm 1 mps 752 mmHg 64%
    04:00 +23°C° 0.2 mm 1 mps 752 mmHg 66%
    05:00 +23°C° 0.2 mm 1 mps 752 mmHg 67%
    06:00 +24°C° 0.2 mm 2 mps 752 mmHg 69%
    07:00 +25°C° 0.4 mm 2 mps 752 mmHg 65%
    08:00 +26°C° 0.4 mm 2 mps 752 mmHg 61%
    09:00 +27°C° 0.4 mm 2 mps 753 mmHg 57%
    10:00 +28°C° 0.2 mm 3 mps 753 mmHg 56%
    11:00 +29°C° 0.2 mm 3 mps 753 mmHg 55%
    12:00 +29°C° 0.2 mm 4 mps 753 mmHg 55%
    13:00 +30°C° 0.1 mm 3 mps 753 mmHg 53%
    14:00 +30°C° 0.1 mm 3 mps 753 mmHg 52%
    15:00 +30°C° 0.1 mm 3 mps 753 mmHg 50%
    16:00 +30°C° 0 mm 3 mps 753 mmHg 50%
    17:00 +30°C° 0 mm 2 mps 752 mmHg 50%
    18:00 +30°C° 0 mm 2 mps 752 mmHg 50%
    19:00 +29°C° 0.1 mm 2 mps 753 mmHg 55%
    20:00 +27°C° 0.1 mm 2 mps 753 mmHg 59%
    21:00 +26°C° 0.1 mm 2 mps 753 mmHg 63%
    22:00 +26°C° 0.1 mm 1 mps 753 mmHg 65%
    23:00 +25°C° 0.1 mm 1 mps 753 mmHg 67%

    Day after tomorrow, 20 July, Friday

    Time Temperature Precipitation Wind Pressure Humidity
    00:00 +25°C° 0.1 mm 1 mps 753 mmHg 69%
    01:00 +24°C° 0 mm 1 mps 753 mmHg 70%
    02:00 +24°C° 0 mm 1 mps 753 mmHg 72%
    03:00 +24°C° 0 mm 1 mps 753 mmHg 73%
    04:00 +24°C° 0 mm 1 mps 753 mmHg 74%
    05:00 +24°C° 0 mm 1 mps 753 mmHg 74%
    06:00 +24°C° 0 mm 1 mps 753 mmHg 75%
    07:00 +26°C° 0 mm 1 mps 753 mmHg 69%
    08:00 +27°C° 0 mm 2 mps 753 mmHg 63%
    09:00 +29°C° 0 mm 2 mps 753 mmHg 57%
    10:00 +30°C° 0 mm 3 mps 753 mmHg 52%
    11:00 +31°C° 0 mm 3 mps 753 mmHg 48%
    12:00 +33°C° 0 mm 3 mps 753 mmHg 43%
    13:00 +34°C° 0 mm 3 mps 753 mmHg 42%
    14:00 +34°C° 0 mm 3 mps 753 mmHg 42%
    15:00 +34°C° 0 mm 3 mps 753 mmHg 42%
    16:00 +33°C° 0 mm 3 mps 753 mmHg 42%
    17:00 +33°C° 0 mm 3 mps 753 mmHg 42%
    18:00 +32°C° 0 mm 2 mps 753 mmHg 42%
    19:00 +31°C° 0.3 mm 2 mps 753 mmHg 47%
    20:00 +29°C° 0.3 mm 2 mps 753 mmHg 52%
    21:00 +27°C° 0.3 mm 2 mps 753 mmHg 58%
    22:00 +26°C° 0 mm 2 mps 753 mmHg 60%
    23:00 +26°C° 0 mm 2 mps 753 mmHg 62%

    21 July, Saturday

    Time Temperature Precipitation Wind Pressure Humidity
    00:00 +25°C° 0 mm 1 mps 753 mmHg 63%
    01:00 +25°C° 0.2 mm 1 mps 753 mmHg 65%
    02:00 +24°C° 0.2 mm 1 mps 753 mmHg 68%
    03:00 +24°C° 0.2 mm 1 mps 753 mmHg 70%
    04:00 +24°C° 0 mm 1 mps 753 mmHg 70%
    05:00 +24°C° 0 mm 1 mps 753 mmHg 70%
    06:00 +24°C° 0 mm 1 mps 754 mmHg 70%
    07:00 +26°C° 0 mm 1 mps 754 mmHg 63%
    08:00 +28°C° 0 mm 1 mps 754 mmHg 56%
    09:00 +29°C° 0 mm 2 mps 754 mmHg 49%
    10:00 +31°C° 0 mm 2 mps 754 mmHg 46%
    11:00 +33°C° 0 mm 3 mps 754 mmHg 42%
    12:00 +34°C° 0 mm 3 mps 754 mmHg 38%
    13:00 +35°C° 0 mm 3 mps 754 mmHg 37%
    14:00 +35°C° 0 mm 3 mps 754 mmHg 36%
    15:00 +36°C° 0 mm 4 mps 753 mmHg 35%
    16:00 +35°C° 0 mm 3 mps 753 mmHg 37%
    17:00 +34°C° 0 mm 3 mps 754 mmHg 39%
    18:00 +34°C° 0 mm 3 mps 754 mmHg 41%
    19:00 +31°C° 0 mm 3 mps 754 mmHg 45%
    20:00 +30°C° 0 mm 3 mps 754 mmHg 49%
    21:00 +28°C° 0 mm 2 mps 754 mmHg 54%
    22:00 +27°C° 0 mm 2 mps 754 mmHg 56%
    23:00 +27°C° 0 mm 2 mps 754 mmHg 59%

    22 July, Sunday

    Time Temperature Precipitation Wind Pressure Humidity
    00:00 +26°C° 0 mm 2 mps 754 mmHg 61%
    01:00 +25°C° 0 mm 2 mps 754 mmHg 63%
    02:00 +25°C° 0 mm 2 mps 754 mmHg 65%
    03:00 +24°C° 0 mm 2 mps 754 mmHg 67%
    04:00 +24°C° 0 mm 1 mps 754 mmHg 68%
    05:00 +25°C° 0 mm 1 mps 754 mmHg 70%
    06:00 +25°C° 0 mm 1 mps 754 mmHg 71%
    07:00 +27°C° 0 mm 1 mps 754 mmHg 65%
    08:00 +28°C° 0 mm 2 mps 754 mmHg 58%
    09:00 +30°C° 0 mm 2 mps 754 mmHg 52%
    10:00 +31°C° 0 mm 3 mps 754 mmHg 48%
    11:00 +34°C° 0 mm 3 mps 754 mmHg 44%
    12:00 +35°C° 0 mm 3 mps 754 mmHg 39%
    13:00 +35°C° 0 mm 3 mps 754 mmHg 38%
    14:00 +36°C° 0 mm 3 mps 753 mmHg 37%
    15:00 +36°C° 0 mm 3 mps 753 mmHg 36%
    16:00 +36°C° 0 mm 3 mps 753 mmHg 36%
    17:00 +35°C° 0 mm 3 mps 753 mmHg 37%
    18:00 +35°C° 0 mm 2 mps 753 mmHg 38%
    19:00 +34°C° 0 mm 2 mps 753 mmHg 42%
    20:00 +31°C° 0 mm 2 mps 754 mmHg 46%
    21:00 +29°C° 0 mm 2 mps 754 mmHg 50%
    22:00 +29°C° 0.1 mm 2 mps 754 mmHg 53%
    23:00 +28°C° 0.1 mm 1 mps 754 mmHg 56%

    23 July, Monday

    Time Temperature Precipitation Wind Pressure Humidity
    00:00 +27°C° 0.1 mm 1 mps 753 mmHg 59%
    01:00 +27°C° 0.1 mm 1 mps 753 mmHg 61%
    02:00 +26°C° 0.1 mm 1 mps 753 mmHg 63%
    03:00 +26°C° 0.1 mm 1 mps 753 mmHg 65%
    04:00 +26°C° 0.2 mm 1 mps 753 mmHg 67%
    05:00 +24°C° 0.2 mm 0 mps 753 mmHg 68%
    06:00 +24°C° 0.2 mm 0 mps 754 mmHg 70%
    07:00 +27°C° 0 mm 1 mps 754 mmHg 64%
    08:00 +29°C° 0 mm 1 mps 754 mmHg 58%
    09:00 +30°C° 0 mm 1 mps 754 mmHg 53%
    10:00 +32°C° 0 mm 2 mps 754 mmHg 48%
    11:00 +34°C° 0 mm 2 mps 753 mmHg 44%
    12:00 +35°C° 0 mm 2 mps 753 mmHg 39%
    13:00 +35°C° 0 mm 2 mps 753 mmHg 38%
    14:00 +36°C° 0 mm 2 mps 753 mmHg 36%
    15:00 +36°C° 0 mm 2 mps 753 mmHg 35%
    16:00 +36°C° 0 mm 2 mps 753 mmHg 36%
    17:00 +36°C° 0 mm 2 mps 753 mmHg 38%
    18:00 +35°C° 0 mm 2 mps 753 mmHg 39%
    19:00 +34°C° 0.3 mm 2 mps 753 mmHg 44%
    20:00 +31°C° 0.3 mm 2 mps 753 mmHg 49%
    21:00 +29°C° 0.3 mm 2 mps 753 mmHg 53%
    22:00 +28°C° 0.9 mm 2 mps 753 mmHg 58%
    23:00 +27°C° 0.9 mm 1 mps 753 mmHg 62%
    Show more